Time,TemperatureF,DewpointF,PressureIn,WindDirection,WindDirectionDegrees,WindSpeedMPH,WindSpeedGustMPH,Humidity,HourlyPrecipIn,Conditions,Clouds,dailyrainin,SoftwareType,DateUTC
2013-07-19 00:01:00,83.6,70.6,29.73,West,261,4.0,9.0,65,0.00,,---,0.00,VWS V14.01,2013-07-19 05:01:00,
2013-07-19 00:06:00,83.5,70.5,29.73,SW,230,1.0,10.0,65,0.00,,---,0.00,VWS V14.01,2013-07-19 05:06:00,
2013-07-19 00:11:00,83.5,70.9,29.72,SW,226,2.0,10.0,66,0.00,,---,0.00,VWS V14.01,2013-07-19 05:11:00,
2013-07-19 00:16:00,83.5,70.5,29.72,SSE,154,5.0,10.0,65,0.00,,---,0.00,VWS V14.01,2013-07-19 05:16:00,
2013-07-19 00:21:00,83.5,70.5,29.72,NW,320,2.0,10.0,65,0.00,,---,0.00,VWS V14.01,2013-07-19 05:21:00,
2013-07-19 00:26:00,83.5,70.5,29.72,NNE,12,3.0,10.0,65,0.00,,---,0.00,VWS V14.01,2013-07-19 05:26:00,
2013-07-19 00:31:00,83.5,70.9,29.72,NW,316,1.0,9.0,66,0.00,,---,0.00,VWS V14.01,2013-07-19 05:31:00,
2013-07-19 00:36:00,83.3,70.8,29.72,East,95,5.0,9.0,66,0.00,,---,0.00,VWS V14.01,2013-07-19 05:36:00,
2013-07-19 00:41:00,83.4,70.9,29.72,NW,316,1.0,9.0,66,0.00,,---,0.00,VWS V14.01,2013-07-19 05:41:00,
2013-07-19 00:46:00,83.4,70.4,29.72,SW,226,2.0,13.0,65,0.00,,---,0.00,VWS V14.01,2013-07-19 05:46:00,
2013-07-19 00:51:00,83.5,70.5,29.72,SW,231,3.0,13.0,65,0.00,,---,0.00,VWS V14.01,2013-07-19 05:51:00,
2013-07-19 00:56:00,83.6,70.6,29.72,NNW,341,4.0,14.0,65,0.00,,---,0.00,VWS V14.01,2013-07-19 05:56:00,
2013-07-19 01:01:00,83.5,70.5,29.72,WNW,296,3.0,10.0,65,0.00,,---,0.00,VWS V14.01,2013-07-19 06:01:00,
2013-07-19 01:06:00,83.5,70.5,29.71,SSW,211,3.0,10.0,65,0.00,,---,0.00,VWS V14.01,2013-07-19 06:06:00,
2013-07-19 01:11:00,83.5,70.5,29.71,ENE,65,2.0,10.0,65,0.00,,---,0.00,VWS V14.01,2013-07-19 06:11:00,
2013-07-19 01:16:00,83.5,70.5,29.71,West,277,2.0,9.0,65,0.00,,---,0.00,VWS V14.01,2013-07-19 06:16:00,
2013-07-19 01:21:00,83.4,70.4,29.71,SSE,147,3.0,9.0,65,0.00,,---,0.00,VWS V14.01,2013-07-19 06:21:00,
2013-07-19 01:26:00,83.4,70.9,29.70,West,270,2.0,9.0,66,0.00,,---,0.00,VWS V14.01,2013-07-19 06:26:00,
2013-07-19 01:31:00,83.3,70.8,29.70,SE,133,1.0,9.0,66,0.00,,---,0.00,VWS V14.01,2013-07-19 06:31:00,
2013-07-19 01:36:00,83.3,70.8,29.70,SSW,208,4.0,12.0,66,0.00,,---,0.00,VWS V14.01,2013-07-19 06:36:00,
2013-07-19 01:41:00,83.3,70.8,29.69,SSW,212,3.0,13.0,66,0.00,,---,0.00,VWS V14.01,2013-07-19 06:41:00,
2013-07-19 01:46:00,83.2,70.7,29.69,West,270,4.0,8.0,66,0.00,,---,0.00,VWS V14.01,2013-07-19 06:46:00,
2013-07-19 01:51:00,83.1,70.6,29.69,SSW,213,3.0,8.0,66,0.00,,---,0.00,VWS V14.01,2013-07-19 06:51:00,
2013-07-19 01:56:00,83.1,70.6,29.69,SW,214,1.0,9.0,66,0.00,,---,0.00,VWS V14.01,2013-07-19 06:56:00,
2013-07-19 02:01:00,83.0,71.8,29.69,SW,231,8.0,10.0,69,0.02,,---,0.02,VWS V14.01,2013-07-19 07:01:00,
2013-07-19 02:06:00,82.0,71.7,29.69,West,278,1.0,10.0,71,0.03,,---,0.03,VWS V14.01,2013-07-19 07:06:00,
2013-07-19 02:11:00,81.0,71.5,29.69,WNW,293,1.0,10.0,73,0.03,,---,0.03,VWS V14.01,2013-07-19 07:11:00,
2013-07-19 02:16:00,80.2,71.6,29.70,SSW,211,2.0,5.0,75,0.03,,---,0.03,VWS V14.01,2013-07-19 07:16:00,
2013-07-19 02:21:00,79.9,71.7,29.70,West,265,3.0,7.0,76,0.03,,---,0.03,VWS V14.01,2013-07-19 07:21:00,
2013-07-19 02:26:00,79.8,71.6,29.70,NW,326,1.0,7.0,76,0.03,,---,0.03,VWS V14.01,2013-07-19 07:26:00,
2013-07-19 02:31:00,79.7,71.5,29.70,WSW,237,3.0,11.0,76,0.03,,---,0.03,VWS V14.01,2013-07-19 07:31:00,
2013-07-19 02:36:00,80.0,71.8,29.70,WNW,303,2.0,11.0,76,0.03,,---,0.03,VWS V14.01,2013-07-19 07:36:00,
2013-07-19 02:41:00,79.9,71.3,29.69,WSW,242,2.0,11.0,75,0.03,,---,0.03,VWS V14.01,2013-07-19 07:41:00,
2013-07-19 02:46:00,80.0,71.4,29.69,SSW,204,2.0,5.0,75,0.03,,---,0.03,VWS V14.01,2013-07-19 07:46:00,
2013-07-19 02:51:00,80.0,71.4,29.69,West,267,2.0,9.0,75,0.03,,---,0.03,VWS V14.01,2013-07-19 07:51:00,
2013-07-19 02:56:00,79.9,71.3,29.69,West,276,3.0,9.0,75,0.03,,---,0.03,VWS V14.01,2013-07-19 07:56:00,
2013-07-19 03:01:00,79.8,71.2,29.69,WSW,257,5.0,7.0,75,0.03,,---,0.03,VWS V14.01,2013-07-19 08:01:00,
2013-07-19 03:06:00,79.7,71.1,29.69,SSW,209,5.0,7.0,75,0.03,,---,0.03,VWS V14.01,2013-07-19 08:06:00,
2013-07-19 03:11:00,79.6,71.4,29.69,SW,228,2.0,7.0,76,0.03,,---,0.03,VWS V14.01,2013-07-19 08:11:00,
2013-07-19 03:16:00,79.4,71.2,29.69,WNW,301,1.0,5.0,76,0.00,,---,0.03,VWS V14.01,2013-07-19 08:16:00,
2013-07-19 03:21:00,79.2,71.4,29.68,NW,305,2.0,5.0,77,0.00,,---,0.03,VWS V14.01,2013-07-19 08:21:00,
2013-07-19 03:26:00,79.1,71.3,29.68,WNW,300,0.0,5.0,77,0.00,,---,0.03,VWS V14.01,2013-07-19 08:26:00,
2013-07-19 03:31:00,78.9,71.1,29.68,WNW,285,1.0,4.0,77,0.00,,---,0.03,VWS V14.01,2013-07-19 08:31:00,
2013-07-19 03:36:00,78.8,71.4,29.69,West,259,4.0,6.0,78,0.00,,---,0.03,VWS V14.01,2013-07-19 08:36:00,
2013-07-19 03:41:00,78.6,71.2,29.69,West,265,2.0,6.0,78,0.00,,---,0.03,VWS V14.01,2013-07-19 08:41:00,
2013-07-19 03:46:00,78.5,71.1,29.69,SSE,167,3.0,3.0,78,0.00,,---,0.03,VWS V14.01,2013-07-19 08:46:00,
2013-07-19 03:51:00,78.4,71.3,29.69,SW,235,0.0,4.0,79,0.00,,---,0.03,VWS V14.01,2013-07-19 08:51:00,
2013-07-19 03:56:00,78.2,71.2,29.69,WSW,254,0.0,4.0,79,0.00,,---,0.03,VWS V14.01,2013-07-19 08:56:00,
2013-07-19 04:01:00,78.0,71.3,29.70,East,96,1.0,3.0,80,0.00,,---,0.03,VWS V14.01,2013-07-19 09:01:00,
2013-07-19 04:06:00,77.9,71.2,29.70,West,275,2.0,5.0,80,0.00,,---,0.03,VWS V14.01,2013-07-19 09:06:00,
2013-07-19 04:11:00,77.8,71.1,29.70,NNW,328,1.0,5.0,80,0.00,,---,0.03,VWS V14.01,2013-07-19 09:11:00,
2013-07-19 04:15:00,77.7,71.4,29.70,West,259,1.0,4.0,81,0.00,,---,0.03,VWS V14.01,2013-07-19 09:15:00,
2013-07-19 04:20:00,77.7,71.4,29.70,West,276,1.0,7.0,81,0.00,,---,0.03,VWS V14.01,2013-07-19 09:20:00,
2013-07-19 04:25:00,77.6,71.3,29.70,West,281,2.0,7.0,81,0.00,,---,0.03,VWS V14.01,2013-07-19 09:25:00,
2013-07-19 04:30:00,77.5,71.2,29.70,SW,218,3.0,5.0,81,0.00,,---,0.03,VWS V14.01,2013-07-19 09:30:00,
2013-07-19 04:35:00,77.4,71.5,29.70,SSE,164,3.0,5.0,82,0.00,,---,0.03,VWS V14.01,2013-07-19 09:35:00,
2013-07-19 04:40:00,77.3,71.4,29.70,WNW,298,0.0,5.0,82,0.00,,---,0.03,VWS V14.01,2013-07-19 09:40:00,
2013-07-19 04:45:00,77.1,71.2,29.70,SW,218,1.0,5.0,82,0.00,,---,0.03,VWS V14.01,2013-07-19 09:45:00,
2013-07-19 04:50:00,76.9,71.3,29.70,SE,133,2.0,5.0,83,0.00,,---,0.03,VWS V14.01,2013-07-19 09:50:00,
2013-07-19 04:55:00,76.8,71.6,29.70,West,270,1.0,5.0,84,0.00,,---,0.03,VWS V14.01,2013-07-19 09:55:00,
2013-07-19 05:00:00,76.6,71.4,29.70,SSW,208,1.0,4.0,84,0.00,,---,0.03,VWS V14.01,2013-07-19 10:00:00,
2013-07-19 05:05:00,76.5,71.3,29.71,NNW,328,0.0,4.0,84,0.00,,---,0.03,VWS V14.01,2013-07-19 10:05:00,
2013-07-19 05:10:00,76.4,71.6,29.71,SW,228,0.0,4.0,85,0.00,,---,0.03,VWS V14.01,2013-07-19 10:10:00,
2013-07-19 05:15:00,76.3,71.5,29.71,SW,229,1.0,1.0,85,0.00,,---,0.03,VWS V14.01,2013-07-19 10:15:00,
2013-07-19 05:20:00,76.2,71.4,29.71,West,275,0.0,3.0,85,0.00,,---,0.03,VWS V14.01,2013-07-19 10:20:00,
2013-07-19 05:25:00,76.3,71.5,29.72,WNW,282,1.0,4.0,85,0.00,,---,0.03,VWS V14.01,2013-07-19 10:25:00,
2013-07-19 05:30:00,76.5,71.7,29.72,SW,228,1.0,5.0,85,0.00,,---,0.03,VWS V14.01,2013-07-19 10:30:00,
2013-07-19 05:35:00,76.7,71.5,29.72,WNW,284,2.0,5.0,84,0.00,,---,0.03,VWS V14.01,2013-07-19 10:35:00,
2013-07-19 05:40:00,76.9,71.7,29.72,West,280,0.0,5.0,84,0.00,,---,0.03,VWS V14.01,2013-07-19 10:40:00,
2013-07-19 05:45:00,77.0,71.8,29.72,WSW,249,2.0,6.0,84,0.00,,---,0.03,VWS V14.01,2013-07-19 10:45:00,
2013-07-19 05:50:00,77.1,71.9,29.72,WNW,289,3.0,6.0,84,0.00,,---,0.03,VWS V14.01,2013-07-19 10:50:00,
2013-07-19 05:55:00,77.1,71.9,29.73,WNW,296,1.0,6.0,84,0.00,,---,0.03,VWS V14.01,2013-07-19 10:55:00,
2013-07-19 06:00:00,77.1,71.9,29.73,SSW,208,0.0,4.0,84,0.00,,---,0.03,VWS V14.01,2013-07-19 11:00:00,
2013-07-19 06:05:00,77.0,71.8,29.73,NW,320,1.0,4.0,84,0.00,,---,0.03,VWS V14.01,2013-07-19 11:05:00,
2013-07-19 06:10:00,77.0,71.8,29.73,WNW,289,1.0,4.0,84,0.00,,---,0.03,VWS V14.01,2013-07-19 11:10:00,
2013-07-19 06:15:00,77.0,71.8,29.73,WSW,251,0.0,5.0,84,0.00,,---,0.03,VWS V14.01,2013-07-19 11:15:00,
2013-07-19 06:20:00,76.9,71.7,29.73,WSW,254,0.0,5.0,84,0.00,,---,0.03,VWS V14.01,2013-07-19 11:20:00,
2013-07-19 06:25:00,76.9,71.7,29.73,WNW,296,0.0,5.0,84,0.00,,---,0.03,VWS V14.01,2013-07-19 11:25:00,
2013-07-19 06:30:00,77.0,71.8,29.73,WNW,303,0.0,3.0,84,0.00,,---,0.03,VWS V14.01,2013-07-19 11:30:00,
2013-07-19 06:35:00,77.1,71.9,29.73,NW,313,1.0,4.0,84,0.00,,---,0.03,VWS V14.01,2013-07-19 11:35:00,
2013-07-19 06:40:00,77.2,71.6,29.73,West,263,1.0,6.0,83,0.00,,---,0.03,VWS V14.01,2013-07-19 11:40:00,
2013-07-19 06:45:00,77.4,71.8,29.74,West,265,2.0,4.0,83,0.00,,---,0.03,VWS V14.01,2013-07-19 11:45:00,
2013-07-19 06:50:00,77.5,71.9,29.73,WNW,282,2.0,4.0,83,0.00,,---,0.03,VWS V14.01,2013-07-19 11:50:00,
2013-07-19 06:55:00,77.6,71.7,29.73,SW,223,1.0,7.0,82,0.00,,---,0.03,VWS V14.01,2013-07-19 11:55:00,
2013-07-19 07:00:00,77.7,71.8,29.73,NW,313,1.0,4.0,82,0.00,,---,0.03,VWS V14.01,2013-07-19 12:00:00,
2013-07-19 07:05:00,77.7,71.8,29.74,NW,309,2.0,4.0,82,0.00,,---,0.03,VWS V14.01,2013-07-19 12:05:00,
2013-07-19 07:10:00,77.8,71.5,29.74,WSW,257,2.0,5.0,81,0.00,,---,0.03,VWS V14.01,2013-07-19 12:10:00,
2013-07-19 07:15:00,77.9,71.6,29.74,NNW,330,1.0,5.0,81,0.00,,---,0.03,VWS V14.01,2013-07-19 12:15:00,
2013-07-19 07:20:00,78.0,71.7,29.74,SW,222,2.0,5.0,81,0.00,,---,0.03,VWS V14.01,2013-07-19 12:20:00,
2013-07-19 07:25:00,78.0,71.7,29.74,West,280,3.0,5.0,81,0.00,,---,0.03,VWS V14.01,2013-07-19 12:25:00,
2013-07-19 07:30:00,78.0,71.3,29.74,West,265,0.0,4.0,80,0.00,,---,0.03,VWS V14.01,2013-07-19 12:30:00,
2013-07-19 07:35:00,78.0,71.0,29.74,SW,229,2.0,5.0,79,0.00,,---,0.03,VWS V14.01,2013-07-19 12:35:00,
2013-07-19 07:40:00,77.9,70.9,29.74,North,351,0.0,5.0,79,0.00,,---,0.03,VWS V14.01,2013-07-19 12:40:00,
2013-07-19 07:45:00,77.8,70.4,29.74,WNW,288,3.0,6.0,78,0.00,,---,0.03,VWS V14.01,2013-07-19 12:45:00,
2013-07-19 07:50:00,77.8,70.4,29.74,NW,326,1.0,6.0,78,0.00,,---,0.03,VWS V14.01,2013-07-19 12:50:00,
2013-07-19 07:55:00,77.8,70.0,29.74,WNW,296,1.0,6.0,77,0.00,,---,0.03,VWS V14.01,2013-07-19 12:55:00,
2013-07-19 08:00:00,77.7,69.9,29.74,NW,314,1.0,2.0,77,0.00,,---,0.03,VWS V14.01,2013-07-19 13:00:00,
2013-07-19 08:05:00,77.7,69.2,29.75,North,356,0.0,3.0,75,0.00,,---,0.03,VWS V14.01,2013-07-19 13:05:00,
2013-07-19 08:10:00,77.7,68.8,29.75,NW,307,2.0,4.0,74,0.00,,---,0.03,VWS V14.01,2013-07-19 13:10:00,
2013-07-19 08:15:00,77.9,68.6,29.75,NW,318,0.0,3.0,73,0.00,,---,0.03,VWS V14.01,2013-07-19 13:15:00,
2013-07-19 08:20:00,78.0,67.8,29.75,WNW,286,1.0,5.0,71,0.00,,---,0.03,VWS V14.01,2013-07-19 13:20:00,
2013-07-19 08:25:00,77.9,67.3,29.75,NW,309,1.0,5.0,70,0.00,,---,0.03,VWS V14.01,2013-07-19 13:25:00,
2013-07-19 08:26:00,77.9,67.3,29.75,NW,311,0.0,5.0,70,0.00,,---,0.03,VWS V14.01,2013-07-19 13:26:00,
2013-07-19 08:31:00,77.9,66.9,29.75,WNW,292,1.0,4.0,69,0.00,,---,0.03,VWS V14.01,2013-07-19 13:31:00,
2013-07-19 08:36:00,78.2,66.8,29.76,NNW,346,1.0,5.0,68,0.00,,---,0.03,VWS V14.01,2013-07-19 13:36:00,
2013-07-19 08:41:00,78.8,67.4,29.76,NNW,331,1.0,5.0,68,0.00,,---,0.03,VWS V14.01,2013-07-19 13:41:00,
2013-07-19 08:46:00,79.4,67.5,29.76,NNW,332,1.0,4.0,67,0.00,,---,0.03,VWS V14.01,2013-07-19 13:46:00,
2013-07-19 08:51:00,79.6,67.2,29.76,WNW,300,1.0,4.0,66,0.00,,---,0.03,VWS V14.01,2013-07-19 13:51:00,
2013-07-19 08:56:00,80.0,67.2,29.76,WSW,247,3.0,4.0,65,0.00,,---,0.03,VWS V14.01,2013-07-19 13:56:00,
2013-07-19 09:01:00,80.5,67.2,29.76,West,275,1.0,4.0,64,0.00,,---,0.03,VWS V14.01,2013-07-19 14:01:00,
2013-07-19 09:06:00,80.6,66.8,29.77,NNE,14,1.0,4.0,63,0.00,,---,0.03,VWS V14.01,2013-07-19 14:06:00,
2013-07-19 09:11:00,80.7,67.4,29.77,SSW,197,2.0,4.0,64,0.00,,---,0.03,VWS V14.01,2013-07-19 14:11:00,
2013-07-19 09:16:00,81.1,68.2,29.77,North,360,1.0,2.0,65,0.00,,---,0.03,VWS V14.01,2013-07-19 14:16:00,
2013-07-19 09:21:00,81.2,67.4,29.77,NNE,17,0.0,4.0,63,0.00,,---,0.03,VWS V14.01,2013-07-19 14:21:00,
2013-07-19 09:26:00,81.5,68.2,29.77,SW,219,1.0,9.0,64,0.00,,---,0.03,VWS V14.01,2013-07-19 14:26:00,
2013-07-19 09:31:00,81.8,68.0,29.77,West,268,1.0,3.0,63,0.00,,---,0.03,VWS V14.01,2013-07-19 14:31:00,
2013-07-19 09:36:00,82.1,68.3,29.77,NNE,12,3.0,5.0,63,0.00,,---,0.03,VWS V14.01,2013-07-19 14:36:00,
2013-07-19 09:41:00,81.9,67.1,29.77,NNW,346,1.0,5.0,61,0.00,,---,0.03,VWS V14.01,2013-07-19 14:41:00,
2013-07-19 09:46:00,81.8,67.5,29.78,WNW,289,2.0,5.0,62,0.00,,---,0.03,VWS V14.01,2013-07-19 14:46:00,
2013-07-19 09:51:00,81.7,66.9,29.78,North,359,1.0,5.0,61,0.00,,---,0.03,VWS V14.01,2013-07-19 14:51:00,
2013-07-19 09:56:00,81.5,65.3,29.78,North,5,0.0,5.0,58,0.00,,---,0.03,VWS V14.01,2013-07-19 14:56:00,
2013-07-19 10:01:00,81.8,67.5,29.78,North,358,0.0,2.0,62,0.00,,---,0.03,VWS V14.01,2013-07-19 15:01:00,
2013-07-19 10:06:00,82.3,66.6,29.78,North,355,1.0,2.0,59,0.00,,---,0.03,VWS V14.01,2013-07-19 15:06:00,
2013-07-19 10:11:00,82.2,66.5,29.78,NNW,344,1.0,4.0,59,0.00,,---,0.03,VWS V14.01,2013-07-19 15:11:00,
2013-07-19 10:16:00,82.3,66.1,29.78,NW,310,1.0,4.0,58,0.00,,---,0.03,VWS V14.01,2013-07-19 15:16:00,
2013-07-19 10:21:00,82.5,66.2,29.78,NNE,12,1.0,4.0,58,0.00,,---,0.03,VWS V14.01,2013-07-19 15:21:00,
2013-07-19 10:26:00,83.1,67.3,29.78,NNW,327,1.0,4.0,59,0.00,,---,0.03,VWS V14.01,2013-07-19 15:26:00,
2013-07-19 10:31:00,83.4,66.6,29.78,NW,310,0.0,4.0,57,0.00,,---,0.03,VWS V14.01,2013-07-19 15:31:00,
2013-07-19 10:36:00,83.6,67.8,29.78,ESE,119,0.0,4.0,59,0.00,,---,0.03,VWS V14.01,2013-07-19 15:36:00,
2013-07-19 10:41:00,83.4,66.1,29.79,North,5,0.0,5.0,56,0.00,,---,0.03,VWS V14.01,2013-07-19 15:41:00,
2013-07-19 10:46:00,83.0,66.2,29.79,NNE,20,3.0,4.0,57,0.00,,---,0.03,VWS V14.01,2013-07-19 15:46:00,
2013-07-19 10:51:00,82.4,65.1,29.79,North,355,2.0,11.0,56,0.00,,---,0.03,VWS V14.01,2013-07-19 15:51:00,
2013-07-19 10:56:00,82.8,66.0,29.79,NW,312,1.0,11.0,57,0.00,,---,0.03,VWS V14.01,2013-07-19 15:56:00,
2013-07-19 11:01:00,83.2,64.8,29.79,North,9,1.0,4.0,54,0.00,,---,0.03,VWS V14.01,2013-07-19 16:01:00,
2013-07-19 11:06:00,83.3,64.9,29.79,SE,133,1.0,7.0,54,0.00,,---,0.03,VWS V14.01,2013-07-19 16:06:00,
2013-07-19 11:11:00,82.8,65.0,29.80,NNW,338,2.0,9.0,55,0.00,,---,0.03,VWS V14.01,2013-07-19 16:11:00,
2013-07-19 11:16:00,82.7,66.9,29.80,NNE,27,2.0,4.0,59,0.00,,---,0.03,VWS V14.01,2013-07-19 16:16:00,
2013-07-19 11:21:00,82.4,66.2,29.80,North,352,1.0,5.0,58,0.00,,---,0.03,VWS V14.01,2013-07-19 16:21:00,
2013-07-19 11:26:00,83.1,66.3,29.80,North,355,0.0,5.0,57,0.00,,---,0.03,VWS V14.01,2013-07-19 16:26:00,
2013-07-19 11:31:00,83.9,67.6,29.80,North,5,0.0,3.0,58,0.00,,---,0.03,VWS V14.01,2013-07-19 16:31:00,
2013-07-19 11:36:00,84.6,68.2,29.80,NW,319,2.0,3.0,58,0.00,,---,0.03,VWS V14.01,2013-07-19 16:36:00,
2013-07-19 11:41:00,84.6,67.2,29.80,WNW,291,1.0,3.0,56,0.00,,---,0.03,VWS V14.01,2013-07-19 16:41:00,
2013-07-19 11:46:00,84.5,67.1,29.80,NNE,19,1.0,4.0,56,0.00,,---,0.03,VWS V14.01,2013-07-19 16:46:00,
2013-07-19 11:51:00,84.3,67.4,29.80,NNE,24,1.0,4.0,57,0.00,,---,0.03,VWS V14.01,2013-07-19 16:51:00,
2013-07-19 11:56:00,84.4,66.5,29.80,WNW,289,0.0,4.0,55,0.00,,---,0.03,VWS V14.01,2013-07-19 16:56:00,
2013-07-19 12:01:00,84.9,68.5,29.80,North,6,1.0,3.0,58,0.00,,---,0.03,VWS V14.01,2013-07-19 17:01:00,
2013-07-19 12:06:00,84.6,67.7,29.80,NNW,331,1.0,4.0,57,0.00,,---,0.03,VWS V14.01,2013-07-19 17:06:00,
2013-07-19 12:11:00,84.2,67.3,29.81,North,353,4.0,7.0,57,0.00,,---,0.03,VWS V14.01,2013-07-19 17:11:00,
2013-07-19 12:16:00,84.1,67.7,29.81,North,351,2.0,4.0,58,0.00,,---,0.03,VWS V14.01,2013-07-19 17:16:00,
2013-07-19 12:21:00,83.4,66.6,29.81,NW,308,2.0,6.0,57,0.00,,---,0.03,VWS V14.01,2013-07-19 17:21:00,
2013-07-19 12:26:00,83.3,67.5,29.81,North,2,1.0,6.0,59,0.00,,---,0.03,VWS V14.01,2013-07-19 17:26:00,
2013-07-19 12:31:00,83.0,65.7,29.81,North,359,1.0,5.0,56,0.00,,---,0.03,VWS V14.01,2013-07-19 17:31:00,
2013-07-19 12:36:00,83.6,66.3,29.81,NNE,24,4.0,5.0,56,0.00,,---,0.03,VWS V14.01,2013-07-19 17:36:00,
2013-07-19 12:41:00,83.6,65.7,29.81,NNW,341,1.0,5.0,55,0.00,,---,0.03,VWS V14.01,2013-07-19 17:41:00,
2013-07-19 12:46:00,83.5,66.2,29.81,North,7,2.0,4.0,56,0.00,,---,0.03,VWS V14.01,2013-07-19 17:46:00,
2013-07-19 12:51:00,83.7,66.9,29.82,NNW,341,0.0,4.0,57,0.00,,---,0.03,VWS V14.01,2013-07-19 17:51:00,
2013-07-19 12:56:00,84.0,66.6,29.81,WSW,251,1.0,4.0,56,0.00,,---,0.03,VWS V14.01,2013-07-19 17:56:00,
2013-07-19 13:01:00,84.6,66.1,29.82,NNW,346,0.0,4.0,54,0.00,,---,0.03,VWS V14.01,2013-07-19 18:01:00,
2013-07-19 13:06:00,85.0,67.0,29.81,WNW,298,1.0,5.0,55,0.00,,---,0.03,VWS V14.01,2013-07-19 18:06:00,
2013-07-19 13:11:00,85.2,66.2,29.81,WNW,298,1.0,5.0,53,0.00,,---,0.03,VWS V14.01,2013-07-19 18:11:00,
2013-07-19 13:16:00,85.5,67.0,29.81,WNW,299,2.0,3.0,54,0.00,,---,0.03,VWS V14.01,2013-07-19 18:16:00,
2013-07-19 13:21:00,85.5,66.4,29.81,ENE,75,1.0,6.0,53,0.00,,---,0.03,VWS V14.01,2013-07-19 18:21:00,
2013-07-19 13:26:00,85.2,66.2,29.81,NE,45,5.0,6.0,53,0.00,,---,0.03,VWS V14.01,2013-07-19 18:26:00,
2013-07-19 13:31:00,84.9,65.9,29.81,SSW,200,0.0,3.0,53,0.00,,---,0.03,VWS V14.01,2013-07-19 18:31:00,
2013-07-19 13:36:00,84.9,65.9,29.82,North,5,1.0,3.0,53,0.00,,---,0.03,VWS V14.01,2013-07-19 18:36:00,
2013-07-19 13:41:00,85.4,67.9,29.82,North,355,2.0,3.0,56,0.00,,---,0.03,VWS V14.01,2013-07-19 18:41:00,
2013-07-19 13:46:00,85.2,65.6,29.82,NNE,13,1.0,2.0,52,0.00,,---,0.03,VWS V14.01,2013-07-19 18:46:00,
2013-07-19 13:50:00,85.6,64.8,29.82,South,172,1.0,4.0,50,0.00,,---,0.03,VWS V14.01,2013-07-19 18:50:00,
2013-07-19 13:55:00,85.8,63.3,29.82,North,8,1.0,4.0,47,0.00,,---,0.03,VWS V14.01,2013-07-19 18:55:00,
2013-07-19 14:00:00,85.1,64.4,29.82,NNW,328,1.0,6.0,50,0.00,,---,0.03,VWS V14.01,2013-07-19 19:00:00,
2013-07-19 14:05:00,85.2,65.1,29.82,NW,321,1.0,6.0,51,0.00,,---,0.03,VWS V14.01,2013-07-19 19:05:00,
2013-07-19 14:10:00,85.5,65.3,29.82,NNW,332,1.0,6.0,51,0.00,,---,0.03,VWS V14.01,2013-07-19 19:10:00,
2013-07-19 14:15:00,86.2,64.8,29.82,West,270,3.0,4.0,49,0.00,,---,0.03,VWS V14.01,2013-07-19 19:15:00,
2013-07-19 14:20:00,85.5,65.9,29.82,North,3,1.0,4.0,52,0.00,,---,0.03,VWS V14.01,2013-07-19 19:20:00,
2013-07-19 14:25:00,85.6,64.8,29.82,NNW,332,1.0,4.0,50,0.00,,---,0.03,VWS V14.01,2013-07-19 19:25:00,
2013-07-19 14:30:00,85.8,63.9,29.82,West,267,3.0,5.0,48,0.00,,---,0.03,VWS V14.01,2013-07-19 19:30:00,
2013-07-19 14:35:00,85.7,65.5,29.82,North,355,2.0,6.0,51,0.00,,---,0.03,VWS V14.01,2013-07-19 19:35:00,
2013-07-19 14:40:00,86.0,65.2,29.82,NNW,338,0.0,6.0,50,0.00,,---,0.03,VWS V14.01,2013-07-19 19:40:00,
2013-07-19 14:45:00,86.0,64.0,29.82,North,11,1.0,5.0,48,0.00,,---,0.03,VWS V14.01,2013-07-19 19:45:00,
2013-07-19 14:50:00,85.9,65.1,29.82,NNW,344,2.0,5.0,50,0.00,,---,0.03,VWS V14.01,2013-07-19 19:50:00,
2013-07-19 14:55:00,85.8,64.4,29.82,NNE,13,0.0,5.0,49,0.00,,---,0.03,VWS V14.01,2013-07-19 19:55:00,
2013-07-19 15:00:00,85.1,62.6,29.82,North,360,3.0,4.0,47,0.00,,---,0.03,VWS V14.01,2013-07-19 20:00:00,
2013-07-19 15:05:00,85.3,64.6,29.82,North,359,0.0,4.0,50,0.00,,---,0.03,VWS V14.01,2013-07-19 20:05:00,
2013-07-19 15:11:00,85.5,64.2,29.82,NNW,341,2.0,8.0,49,0.00,,---,0.03,VWS V14.01,2013-07-19 20:11:00,
2013-07-19 15:16:00,85.7,63.2,29.82,WNW,284,1.0,6.0,47,0.00,,---,0.03,VWS V14.01,2013-07-19 20:16:00,
2013-07-19 15:21:00,85.7,63.2,29.82,NNE,17,1.0,6.0,47,0.00,,---,0.03,VWS V14.01,2013-07-19 20:21:00,
2013-07-19 15:26:00,86.0,63.4,29.82,North,360,1.0,6.0,47,0.00,,---,0.03,VWS V14.01,2013-07-19 20:26:00,
2013-07-19 15:31:00,86.0,64.6,29.81,North,349,0.0,2.0,49,0.00,,---,0.03,VWS V14.01,2013-07-19 20:31:00,
2013-07-19 15:35:00,86.1,63.5,29.82,NNE,23,3.0,5.0,47,0.00,,---,0.03,VWS V14.01,2013-07-19 20:35:00,
2013-07-19 15:40:00,85.9,64.5,29.82,West,274,2.0,7.0,49,0.00,,---,0.03,VWS V14.01,2013-07-19 20:40:00,
2013-07-19 15:45:00,85.9,64.5,29.82,NNE,27,2.0,4.0,49,0.00,,---,0.03,VWS V14.01,2013-07-19 20:45:00,
2013-07-19 15:50:00,86.0,65.8,29.82,NNW,332,3.0,4.0,51,0.00,,---,0.03,VWS V14.01,2013-07-19 20:50:00,
2013-07-19 15:55:00,85.9,63.3,29.82,North,6,3.0,6.0,47,0.00,,---,0.03,VWS V14.01,2013-07-19 20:55:00,
2013-07-19 16:00:00,85.7,66.1,29.81,NNW,332,1.0,3.0,52,0.00,,---,0.03,VWS V14.01,2013-07-19 21:00:00,
2013-07-19 16:05:00,86.0,64.0,29.81,North,353,1.0,3.0,48,0.00,,---,0.03,VWS V14.01,2013-07-19 21:05:00,
2013-07-19 16:10:00,86.2,63.6,29.81,NW,321,1.0,3.0,47,0.00,,---,0.03,VWS V14.01,2013-07-19 21:10:00,
2013-07-19 16:15:00,86.5,65.1,29.82,WSW,258,1.0,1.0,49,0.00,,---,0.03,VWS V14.01,2013-07-19 21:15:00,
2013-07-19 16:20:00,86.7,64.1,29.81,WNW,294,1.0,9.0,47,0.00,,---,0.03,VWS V14.01,2013-07-19 21:20:00,
2013-07-19 16:25:00,87.0,64.3,29.81,NNW,331,0.0,9.0,47,0.00,,---,0.03,VWS V14.01,2013-07-19 21:25:00,
2013-07-19 16:30:00,87.1,63.2,29.82,NW,314,1.0,5.0,45,0.00,,---,0.03,VWS V14.01,2013-07-19 21:30:00,
2013-07-19 16:35:00,86.8,63.6,29.82,NNW,344,1.0,7.0,46,0.00,,---,0.03,VWS V14.01,2013-07-19 21:35:00,
2013-07-19 16:40:00,86.9,63.7,29.82,NW,314,0.0,7.0,46,0.00,,---,0.03,VWS V14.01,2013-07-19 21:40:00,
2013-07-19 16:45:00,86.7,63.5,29.82,NNE,12,1.0,3.0,46,0.00,,---,0.03,VWS V14.01,2013-07-19 21:45:00,
2013-07-19 16:50:00,86.5,63.3,29.81,North,357,1.0,4.0,46,0.00,,---,0.03,VWS V14.01,2013-07-19 21:50:00,
2013-07-19 16:55:00,86.3,61.8,29.81,WNW,290,0.0,4.0,44,0.00,,---,0.03,VWS V14.01,2013-07-19 21:55:00,
2013-07-19 17:00:00,86.0,62.2,29.81,WNW,290,1.0,5.0,45,0.00,,---,0.03,VWS V14.01,2013-07-19 22:00:00,
2013-07-19 17:05:00,85.9,62.7,29.81,NNW,335,1.0,5.0,46,0.00,,---,0.03,VWS V14.01,2013-07-19 22:05:00,
2013-07-19 17:10:00,85.6,62.5,29.81,NNW,336,1.0,6.0,46,0.00,,---,0.03,VWS V14.01,2013-07-19 22:10:00,
2013-07-19 17:15:00,85.2,62.1,29.81,WNW,292,0.0,3.0,46,0.00,,---,0.03,VWS V14.01,2013-07-19 22:15:00,
2013-07-19 17:20:00,85.6,62.5,29.81,NNW,341,1.0,5.0,46,0.00,,---,0.03,VWS V14.01,2013-07-19 22:20:00,
2013-07-19 17:25:00,85.8,62.7,29.81,NNW,341,2.0,5.0,46,0.00,,---,0.03,VWS V14.01,2013-07-19 22:25:00,
2013-07-19 17:30:00,86.0,62.8,29.81,North,9,1.0,2.0,46,0.00,,---,0.03,VWS V14.01,2013-07-19 22:30:00,
2013-07-19 17:35:00,85.7,61.3,29.81,NNW,341,1.0,4.0,44,0.00,,---,0.03,VWS V14.01,2013-07-19 22:35:00,
2013-07-19 17:40:00,85.6,61.2,29.81,NNW,339,2.0,4.0,44,0.00,,---,0.03,VWS V14.01,2013-07-19 22:40:00,
2013-07-19 17:45:00,85.3,61.6,29.81,North,5,0.0,6.0,45,0.00,,---,0.03,VWS V14.01,2013-07-19 22:45:00,
2013-07-19 17:50:00,85.6,61.8,29.80,NNW,335,0.0,6.0,45,0.00,,---,0.03,VWS V14.01,2013-07-19 22:50:00,
2013-07-19 17:55:00,85.9,62.1,29.81,NNW,348,0.0,6.0,45,0.00,,---,0.03,VWS V14.01,2013-07-19 22:55:00,
2013-07-19 18:00:00,85.6,61.8,29.81,North,358,0.0,3.0,45,0.00,,---,0.03,VWS V14.01,2013-07-19 23:00:00,
2013-07-19 18:05:00,85.4,62.3,29.80,SSE,151,2.0,3.0,46,0.00,,---,0.03,VWS V14.01,2013-07-19 23:05:00,
2013-07-19 18:10:00,85.4,61.7,29.80,NW,321,1.0,4.0,45,0.00,,---,0.03,VWS V14.01,2013-07-19 23:10:00,
2013-07-19 18:15:00,84.8,61.1,29.80,NNE,23,1.0,4.0,45,0.00,,---,0.03,VWS V14.01,2013-07-19 23:15:00,
2013-07-19 18:20:00,84.3,62.5,29.80,North,353,0.0,5.0,48,0.00,,---,0.03,VWS V14.01,2013-07-19 23:20:00,
2013-07-19 18:25:00,84.3,62.5,29.80,NNE,16,0.0,5.0,48,0.00,,---,0.03,VWS V14.01,2013-07-19 23:25:00,
2013-07-19 18:30:00,84.2,61.8,29.80,NE,37,3.0,3.0,47,0.00,,---,0.03,VWS V14.01,2013-07-19 23:30:00,
2013-07-19 18:35:00,83.9,61.5,29.80,North,355,1.0,3.0,47,0.00,,---,0.03,VWS V14.01,2013-07-19 23:35:00,
2013-07-19 18:40:00,83.6,61.8,29.80,NNE,21,2.0,3.0,48,0.00,,---,0.03,VWS V14.01,2013-07-19 23:40:00,
2013-07-19 18:45:00,83.5,61.8,29.80,North,2,0.0,3.0,48,0.00,,---,0.03,VWS V14.01,2013-07-19 23:45:00,
2013-07-19 18:50:00,83.4,60.5,29.80,NW,321,1.0,4.0,46,0.00,,---,0.03,VWS V14.01,2013-07-19 23:50:00,
2013-07-19 18:55:00,83.5,60.6,29.81,NNE,16,0.0,4.0,46,0.00,,---,0.03,VWS V14.01,2013-07-19 23:55:00,
2013-07-19 19:00:00,83.5,60.6,29.80,NNE,12,1.0,2.0,46,0.00,,---,0.03,VWS V14.01,2013-07-20 00:00:00,
2013-07-19 19:05:00,83.5,59.9,29.80,North,351,1.0,5.0,45,0.00,,---,0.03,VWS V14.01,2013-07-20 00:05:00,
2013-07-19 19:10:00,83.2,60.3,29.80,NE,48,1.0,5.0,46,0.00,,---,0.03,VWS V14.01,2013-07-20 00:10:00,
2013-07-19 19:15:00,83.0,60.7,29.80,NNE,16,1.0,2.0,47,0.00,,---,0.03,VWS V14.01,2013-07-20 00:15:00,
2013-07-19 19:20:00,83.1,61.4,29.80,North,352,0.0,2.0,48,0.00,,---,0.03,VWS V14.01,2013-07-20 00:20:00,
2013-07-19 19:25:00,82.9,61.8,29.80,North,5,0.0,2.0,49,0.00,,---,0.03,VWS V14.01,2013-07-20 00:25:00,
2013-07-19 19:30:00,82.6,60.9,29.81,NNW,331,1.0,2.0,48,0.00,,---,0.03,VWS V14.01,2013-07-20 00:30:00,
2013-07-19 19:35:00,82.3,61.8,29.81,WNW,303,0.0,2.0,50,0.00,,---,0.03,VWS V14.01,2013-07-20 00:35:00,
2013-07-19 19:40:00,82.0,62.1,29.81,NNW,332,0.0,2.0,51,0.00,,---,0.03,VWS V14.01,2013-07-20 00:40:00,
2013-07-19 19:45:00,81.5,62.2,29.81,NNE,14,0.0,1.0,52,0.00,,---,0.03,VWS V14.01,2013-07-20 00:45:00,
2013-07-19 19:50:00,81.0,61.7,29.81,NE,43,1.0,2.0,52,0.00,,---,0.03,VWS V14.01,2013-07-20 00:50:00,
2013-07-19 19:55:00,80.6,61.9,29.81,NW,307,1.0,6.0,53,0.00,,---,0.03,VWS V14.01,2013-07-20 00:55:00,
2013-07-19 20:00:00,80.3,62.2,29.81,SW,235,2.0,2.0,54,0.00,,---,0.03,VWS V14.01,2013-07-20 01:00:00,
2013-07-19 20:05:00,80.0,61.9,29.81,North,2,1.0,2.0,54,0.00,,---,0.03,VWS V14.01,2013-07-20 01:05:00,
2013-07-19 20:10:00,79.7,61.6,29.81,NNW,348,1.0,2.0,54,0.00,,---,0.03,VWS V14.01,2013-07-20 01:10:00,
2013-07-19 20:15:00,79.4,61.3,29.81,North,5,2.0,2.0,54,0.00,,---,0.03,VWS V14.01,2013-07-20 01:15:00,
2013-07-19 20:20:00,79.1,60.5,29.81,NE,39,0.0,2.0,53,0.00,,---,0.03,VWS V14.01,2013-07-20 01:20:00,
2013-07-19 20:25:00,78.9,60.9,29.81,NNE,30,1.0,3.0,54,0.00,,---,0.03,VWS V14.01,2013-07-20 01:25:00,
2013-07-19 20:30:00,78.7,61.2,29.81,West,275,0.0,1.0,55,0.00,,---,0.03,VWS V14.01,2013-07-20 01:30:00,
2013-07-19 20:35:00,78.4,60.9,29.81,West,275,0.0,1.0,55,0.00,,---,0.03,VWS V14.01,2013-07-20 01:35:00,
2013-07-19 20:40:00,77.9,61.0,29.81,NW,312,0.0,2.0,56,0.00,,---,0.03,VWS V14.01,2013-07-20 01:40:00,
2013-07-19 20:45:00,77.5,61.1,29.81,NW,311,0.0,0.0,57,0.00,,---,0.03,VWS V14.01,2013-07-20 01:45:00,
2013-07-19 20:50:00,77.1,61.2,29.81,NW,311,0.0,0.0,58,0.00,,---,0.03,VWS V14.01,2013-07-20 01:50:00,
2013-07-19 20:55:00,76.8,61.4,29.81,NW,311,0.0,1.0,59,0.00,,---,0.03,VWS V14.01,2013-07-20 01:55:00,
2013-07-19 21:00:00,76.5,61.6,29.81,NW,311,0.0,1.0,60,0.00,,---,0.03,VWS V14.01,2013-07-20 02:00:00,
2013-07-19 21:05:00,76.2,61.3,29.82,NW,311,0.0,1.0,60,0.00,,---,0.03,VWS V14.01,2013-07-20 02:05:00,
2013-07-19 21:10:00,75.9,61.0,29.82,NW,311,0.0,1.0,60,0.00,,---,0.03,VWS V14.01,2013-07-20 02:10:00,
2013-07-19 21:15:00,75.7,61.3,29.82,NW,312,0.0,2.0,61,0.00,,---,0.03,VWS V14.01,2013-07-20 02:15:00,
2013-07-19 21:20:00,75.5,61.1,29.82,NW,311,0.0,2.0,61,0.00,,---,0.03,VWS V14.01,2013-07-20 02:20:00,
2013-07-19 21:25:00,75.3,60.9,29.82,NW,312,0.0,2.0,61,0.00,,---,0.03,VWS V14.01,2013-07-20 02:25:00,
2013-07-19 21:30:00,75.1,60.8,29.83,NW,311,0.0,1.0,61,0.00,,---,0.03,VWS V14.01,2013-07-20 02:30:00,
2013-07-19 21:35:00,74.8,60.9,29.83,NW,311,0.0,1.0,62,0.00,,---,0.03,VWS V14.01,2013-07-20 02:35:00,
2013-07-19 21:40:00,74.7,60.8,29.83,NW,304,0.0,1.0,62,0.00,,---,0.03,VWS V14.01,2013-07-20 02:40:00,
2013-07-19 21:45:00,74.6,61.2,29.83,WNW,301,0.0,2.0,63,0.00,,---,0.03,VWS V14.01,2013-07-20 02:45:00,
2013-07-19 21:50:00,74.5,61.5,29.83,WNW,300,0.0,2.0,64,0.00,,---,0.03,VWS V14.01,2013-07-20 02:50:00,
2013-07-19 21:55:00,74.2,61.2,29.83,WNW,300,0.0,2.0,64,0.00,,---,0.03,VWS V14.01,2013-07-20 02:55:00,
2013-07-19 22:00:00,73.9,61.4,29.83,WNW,300,0.0,0.0,65,0.00,,---,0.03,VWS V14.01,2013-07-20 03:00:00,
2013-07-19 22:05:00,73.6,61.5,29.84,WNW,300,1.0,1.0,66,0.00,,---,0.03,VWS V14.01,2013-07-20 03:05:00,
2013-07-19 22:10:00,73.4,61.8,29.84,WNW,301,0.0,1.0,67,0.00,,---,0.03,VWS V14.01,2013-07-20 03:10:00,
2013-07-19 22:15:00,73.2,62.0,29.85,WNW,300,0.0,1.0,68,0.00,,---,0.03,VWS V14.01,2013-07-20 03:15:00,
2013-07-19 22:20:00,73.1,62.3,29.85,West,278,0.0,2.0,69,0.00,,---,0.03,VWS V14.01,2013-07-20 03:20:00,
2013-07-19 22:25:00,73.0,62.2,29.85,West,278,0.0,2.0,69,0.00,,---,0.03,VWS V14.01,2013-07-20 03:25:00,
2013-07-19 22:30:00,72.9,62.1,29.85,West,278,0.0,1.0,69,0.00,,---,0.03,VWS V14.01,2013-07-20 03:30:00,
2013-07-19 22:35:00,72.9,62.1,29.85,West,278,0.0,1.0,69,0.00,,---,0.03,VWS V14.01,2013-07-20 03:35:00,
2013-07-19 22:40:00,72.7,62.0,29.85,West,278,0.0,1.0,69,0.00,,---,0.03,VWS V14.01,2013-07-20 03:40:00,
2013-07-19 22:45:00,72.6,62.3,29.85,West,278,0.0,0.0,70,0.00,,---,0.03,VWS V14.01,2013-07-20 03:45:00,
2013-07-19 22:50:00,72.6,62.3,29.85,West,277,0.0,1.0,70,0.00,,---,0.03,VWS V14.01,2013-07-20 03:50:00,
2013-07-19 22:55:00,72.6,62.3,29.85,West,280,0.0,1.0,70,0.00,,---,0.03,VWS V14.01,2013-07-20 03:55:00,
2013-07-19 23:00:00,72.6,62.3,29.86,West,280,0.0,2.0,70,0.00,,---,0.03,VWS V14.01,2013-07-20 04:00:00,
2013-07-19 23:01:00,72.6,62.3,29.86,West,280,0.0,2.0,70,0.00,,---,0.03,VWS V14.01,2013-07-20 04:01:00,
2013-07-19 23:06:00,72.5,62.2,29.86,West,281,0.0,2.0,70,0.00,,---,0.03,VWS V14.01,2013-07-20 04:06:00,
2013-07-19 23:11:00,72.4,62.5,29.86,West,280,0.0,2.0,71,0.00,,---,0.03,VWS V14.01,2013-07-20 04:11:00,
2013-07-19 23:16:00,72.3,62.4,29.86,West,281,0.0,0.0,71,0.00,,---,0.03,VWS V14.01,2013-07-20 04:16:00,
2013-07-19 23:21:00,72.2,62.3,29.86,West,280,0.0,0.0,71,0.00,,---,0.03,VWS V14.01,2013-07-20 04:21:00,
2013-07-19 23:26:00,72.1,62.6,29.86,West,281,0.0,0.0,72,0.00,,---,0.03,VWS V14.01,2013-07-20 04:26:00,
2013-07-19 23:31:00,72.0,62.5,29.86,West,280,0.0,1.0,72,0.00,,---,0.03,VWS V14.01,2013-07-20 04:31:00,
2013-07-19 23:36:00,72.0,62.5,29.86,West,280,0.0,1.0,72,0.00,,---,0.03,VWS V14.01,2013-07-20 04:36:00,
2013-07-19 23:41:00,71.9,62.8,29.86,West,280,0.0,1.0,73,0.00,,---,0.03,VWS V14.01,2013-07-20 04:41:00,
2013-07-19 23:46:00,71.8,62.7,29.86,West,280,0.0,0.0,73,0.00,,---,0.03,VWS V14.01,2013-07-20 04:46:00,
2013-07-19 23:51:00,71.8,62.7,29.86,West,280,0.0,0.0,73,0.00,,---,0.03,VWS V14.01,2013-07-20 04:51:00,
2013-07-19 23:56:00,71.9,62.8,29.85,WNW,296,1.0,2.0,73,0.00,,---,0.03,VWS V14.01,2013-07-20 04:56:00,